OK1TOM-6 Weather Reports


Display with metric or nautical units.
time (UTC)temp
F
wind
direction
speed
MPH
gust
MPH
rain 1hr
in
rain 24hr
in
rain mn
in
humidity
%
barometer
mb
20260507044543 49 135 0.0 2.0 0.01 0.25 0.02 95 1011.1
20260507043539 49 135 0.0 2.0 0.01 0.25 0.02 95 1010.9
20260507042536 49 113 0.0 2.0 0.01 0.25 0.02 95 1010.9
20260507041532 49 158 0.0 0.0 0.01 0.25 0.02 96 1010.8
20260507040529 49 158 0.0 2.0 0.01 0.25 0.02 96 1010.8
20260507035526 49 146 0.0 4.0 0.01 0.25 0.02 95 1010.7
20260507034522 49 180 0.0 2.0 0.00 0.24 0.01 96 1010.6
20260507033519 49 158 0.0 2.0 0.00 0.24 0.01 95 1010.7
20260507032515 49 158 1.0 2.0 0.00 0.24 0.01 95 1010.6
20260507031612 49 158 0.0 2.0 0.00 0.24 0.01 95 1010.7
20260507030609 49 103 1.0 2.0 0.00 0.24 0.01 95 1010.6
20260507025605 49 158 1.0 4.0 0.00 0.24 0.01 96 1010.7
20260507024602 49 113 0.0 2.0 0.00 0.24 0.01 96 1010.5
20260507023559 49 150 1.0 4.0 0.00 0.24 0.01 96 1010.4
20260507022555 49 135 0.0 4.0 0.00 0.24 0.01 96 1010.4
20260507021552 49 148 1.0 4.0 0.00 0.24 0.01 96 1010.3
20260507020549 49 135 0.0 2.0 0.00 0.24 0.01 95 1010.3
20260507015545 49 148 1.0 4.0 0.00 0.24 0.01 95 1010.2
20260507014541 49 143 1.0 4.0 0.00 0.24 0.01 94 1010.1
20260507013538 49 158 1.0 6.0 0.01 0.24 0.01 95 1010.1
20260507012535 50 135 0.0 2.0 0.01 0.24 0.01 95 1010.0
20260507011531 50 139 1.0 4.0 0.01 0.24 0.01 94 1009.8
20260507010528 50 180 0.0 2.0 0.01 0.24 0.01 95 1009.9
20260507005524 50 169 0.0 2.0 0.01 0.24 0.01 95 1010.1
20260507004521 50 135 0.0 2.0 0.01 0.24 0.01 95 1010.1
20260507003518 50 135 0.0 2.0 0.00 0.22 0.00 95 1010.1
20260507002614 50 147 0.0 4.0 0.00 0.22 0.00 95 1010.1
20260507001611 50 124 0.0 2.0 0.00 0.22 0.00 95 1010.2
20260507000608 50 158 0.0 0.0 0.00 0.22 0.00 95 1010.2
20260506235604 50 158 0.0 2.0 0.00 0.22 0.00 94 1010.1
20260506234601 50 154 1.0 4.0 0.00 0.22 0.00 94 1009.9
20260506233557 50 158 0.0 2.0 0.00 0.22 0.00 93 1009.9
20260506232554 50 158 1.0 4.0 0.00 0.22 0.00 94 1009.9
20260506231550 49 158 0.0 4.0 0.00 0.22 0.00 94 1009.9
20260506230547 49 158 0.0 0.0 0.00 0.22 0.00 96 1009.9
20260506225543 49 158 0.0 0.0 0.00 0.22 0.00 97 1009.7
20260506224540 49 158 0.0 0.0 0.01 0.22 0.00 97 1009.6
20260506223536 49 158 0.0 0.0 0.04 0.22 0.00 96 1009.8
20260506222533 49 158 0.0 0.0 0.05 0.22 0.00 96 1009.7
20260506221530 50 158 0.0 0.0 0.07 0.22 0.00 96 1009.7
20260506220526 50 158 0.0 0.0 0.11 0.22 0.00 96 1009.8
20260506215523 50 158 0.0 2.0 0.13 0.22 0.22 95 1009.7
20260506214519 50 158 0.0 2.0 0.13 0.21 0.21 95 1009.8
20260506213516 50 158 0.0 2.0 0.11 0.19 0.19 95 1009.8
20260506212613 50 158 0.0 2.0 0.09 0.18 0.18 95 1009.9
20260506211609 51 158 0.0 2.0 0.07 0.15 0.15 94 1010.0
20260506210606 51 135 1.0 4.0 0.04 0.13 0.12 93 1010.1
20260506205602 52 147 2.0 4.0 0.01 0.11 0.09 93 1009.9
20260506204559 52 125 1.0 4.0 0.01 0.09 0.08 93 1009.4
20260506203556 52 338 0.0 0.0 0.02 0.09 0.08 96 1009.0
20260506202552 51 338 0.0 0.0 0.04 0.09 0.08 96 1008.9
20260506201549 52 338 0.0 0.0 0.04 0.09 0.08 96 1008.8
20260506200545 52 338 0.0 0.0 0.06 0.09 0.08 96 1008.8
20260506195542 52 338 0.0 0.0 0.06 0.09 0.08 95 1008.8
20260506194538 53 338 0.0 0.0 0.06 0.11 0.07 94 1008.9
20260506193535 53 338 0.0 0.0 0.06 0.12 0.06 91 1008.9
20260506192532 53 338 0.0 0.0 0.05 0.14 0.05 90 1008.9
20260506191528 54 338 0.0 0.0 0.05 0.21 0.05 90 1008.8
20260506190525 54 338 0.0 0.0 0.02 0.34 0.02 90 1008.7
20260506185521 54 338 0.0 0.0 0.02 0.54 0.02 90 1008.6
20260506184518 55 338 0.0 0.0 0.01 0.73 0.01 88 1008.5
20260506183615 56 338 0.0 0.0 0.00 0.72 0.00 82 1008.4
20260506182611 56 338 0.0 0.0 0.00 0.72 0.00 80 1008.0
20260506181608 56 338 0.0 0.0 0.00 0.72 0.00 81 1007.9
20260506180604 56 338 0.0 0.0 0.00 0.72 0.00 79 1007.9
20260506175601 57 338 0.0 0.0 0.00 0.72 0.00 79 1007.8
20260506174558 57 338 0.0 0.0 0.00 0.72 0.00 77 1007.7
20260506173554 58 338 0.0 0.0 0.00 0.72 0.00 74 1007.6
20260506172551 58 338 0.0 0.0 0.00 0.72 0.00 73 1007.7
20260506171547 59 338 0.0 0.0 0.00 0.72 0.00 72 1007.6
20260506170544 60 338 0.0 0.0 0.00 0.72 0.00 70 1007.6
20260506165540 60 338 0.0 0.0 0.00 0.72 0.00 69 1007.6
20260506164537 60 338 0.0 0.0 0.00 0.72 0.00 68 1007.6
20260506163533 60 0 0.0 0.0 0.00 0.72 0.00 68 1007.7
20260506162530 60 0 0.0 0.0 0.00 0.72 0.00 67 1007.8
20260506161526 61 23 0.0 0.0 0.00 0.72 0.00 67 1007.8
20260506160523 62 135 0.0 2.0 0.00 0.72 0.00 64 1007.7
20260506155519 62 0 0.0 2.0 0.00 0.72 0.00 64 1007.8
20260506154516 62 270 0.0 2.0 0.00 0.72 0.00 66 1008.0
20260506153613 62 278 0.0 2.0 0.00 0.72 0.00 64 1008.2
20260506152609 62 236 0.0 2.0 0.00 0.72 0.00 64 1008.2
20260506151606 61 0 0.0 0.0 0.00 0.72 0.00 63 1008.3
20260506150603 62 0 0.0 2.0 0.00 0.72 0.00 64 1008.3
20260506145559 62 0 0.0 2.0 0.00 0.72 0.00 64 1008.3
20260506144556 62 248 0.0 2.0 0.00 0.72 0.00 63 1008.3
20260506143552 61 248 0.0 2.0 0.00 0.72 0.00 63 1008.4
20260506142549 62 248 0.0 2.0 0.00 0.72 0.00 64 1008.4
20260506141546 62 225 0.0 2.0 0.00 0.72 0.00 62 1008.4
20260506140542 62 248 0.0 2.0 0.00 0.72 0.00 60 1008.5
20260506135539 63 248 0.0 2.0 0.00 0.72 0.00 58 1008.5
20260506134535 63 25 1.0 2.0 0.00 0.72 0.00 59 1008.4
20260506133532 62 90 0.0 2.0 0.00 0.72 0.00 60 1008.5
20260506132528 62 180 1.0 4.0 0.00 0.72 0.00 60 1008.6
20260506131525 62 248 0.0 2.0 0.00 0.72 0.00 61 1008.8
20260506130522 62 90 0.0 2.0 0.00 0.72 0.00 61 1008.8
20260506125518 62 90 1.0 4.0 0.00 0.72 0.00 62 1008.6
20260506124615 62 135 0.0 4.0 0.00 0.72 0.00 60 1008.8
20260506123612 62 90 0.0 2.0 0.00 0.72 0.00 60 1009.0
20260506122608 61 147 0.0 2.0 0.00 0.72 0.00 61 1009.1
20260506121605 60 104 1.0 4.0 0.00 0.72 0.00 62 1009.2
20260506120601 61 172 1.0 2.0 0.00 0.72 0.00 62 1009.2
20260506115558 61 158 0.0 2.0 0.00 0.72 0.00 61 1009.3
20260506114555 61 167 1.0 4.0 0.00 0.72 0.00 63 1009.2
20260506113551 60 158 1.0 2.0 0.00 0.72 0.00 65 1009.3
20260506112548 61 152 1.0 4.0 0.00 0.72 0.00 64 1009.4
20260506111544 61 158 1.0 4.0 0.00 0.72 0.00 65 1009.4
20260506105537 60 158 0.0 2.0 0.00 0.72 0.00 68 1009.4
20260506104534 59 158 0.0 4.0 0.00 0.72 0.00 69 1009.5
20260506103530 60 128 1.0 4.0 0.00 0.72 0.00 69 1009.4
20260506102527 60 161 1.0 4.0 0.00 0.72 0.00 65 1009.4
20260506101523 60 132 2.0 4.0 0.00 0.72 0.00 68 1009.5
20260506100519 58 122 1.0 2.0 0.00 0.72 0.00 71 1009.6
20260506095516 58 141 1.0 4.0 0.00 0.72 0.00 74 1009.5
20260506094613 58 147 0.0 4.0 0.00 0.72 0.00 74 1009.5
20260506093609 58 137 1.0 4.0 0.00 0.72 0.00 74 1009.4
20260506092606 58 158 1.0 4.0 0.00 0.72 0.00 73 1009.5
20260506091602 56 135 1.0 2.0 0.00 0.72 0.00 76 1009.6
20260506090559 58 144 1.0 4.0 0.00 0.72 0.00 75 1009.5
20260506085556 57 122 1.0 4.0 0.00 0.72 0.00 79 1009.5
20260506084552 56 154 1.0 4.0 0.00 0.72 0.00 79 1009.5
20260506083549 55 142 0.0 2.0 0.00 0.72 0.00 81 1009.5
20260506082545 55 182 1.0 4.0 0.00 0.72 0.00 81 1009.3
20260506081542 55 158 0.0 4.0 0.00 0.72 0.00 81 1009.3
20260506080539 54 158 0.0 2.0 0.00 0.72 0.00 83 1009.4
20260506072555 53 158 0.0 2.0 0.00 0.72 0.00 87 1009.0
20260506071551 52 135 0.0 2.0 0.00 0.72 0.00 87 1009.0
20260506070548 53 158 0.0 2.0 0.00 0.72 0.00 87 1009.0
20260506061531 52 173 0.0 4.0 0.00 0.72 0.00 91 1008.9
20260506060527 52 162 1.0 2.0 0.00 0.72 0.00 91 1009.0
20260506050607 51 135 0.0 2.0 0.00 0.72 0.00 94 1008.7